Regional Weather Roundup
Issued by NWS Charleston, WV

Home | Current Version | Previous Version | Text Only | Print | Product List | Glossary Off
Versions: 1 2 3 4 5 6 7 8 9 10 11 12 13 14 15 16 17 18 19 20 21 22 23 24 25 26 27

000
ASUS41 KRLX 141710
RWRRLX
West Virginia Regional Weather Roundup
National Weather Service Charleston WV
1200 PM EST THU DEC 14 2017

Note: "fair" indicates few or no clouds below 12,000 feet with no
significant weather and/or obstructions to visibility.

WVZ003-141800-
Northern Panhandle of West Virginia

CITY           SKY/WX    TMP DP  RH WIND       PRES   REMARKS
WHEELING       LGT SNOW  23  18  81 N8        29.94S
$$

WVZ009-141800-
Northwest West Virginia

CITY           SKY/WX    TMP DP  RH WIND       PRES   REMARKS
PARKERSBURG    CLOUDY    30  20  66 N8        29.98F
$$

WVZ006-141800-
Western West Virginia

CITY           SKY/WX    TMP DP  RH WIND       PRES   REMARKS
HUNTINGTON     CLOUDY    34  19  54 N10       29.97S
$$

WVZ015-141800-
West Central West Virginia

CITY           SKY/WX    TMP DP  RH WIND       PRES   REMARKS
CHARLESTON     CLOUDY    34  21  59 VRB5      29.94S
$$

WVZ022-031-141800-
North Central West Virginia

CITY           SKY/WX    TMP DP  RH WIND       PRES   REMARKS
CLARKSBURG     CLOUDY    30  23  75 NW8       29.91F
MORGANTOWN     FLURRIES  28  18  66 NW5       29.91F
$$

WVZ025-035-042-045-141800-
Southern West Virginia

CITY           SKY/WX    TMP DP  RH WIND       PRES   REMARKS
BECKLEY        CLOUDY    30  19  63 W9        29.84S
LOGAN          CLOUDY    34  21  60 CALM      29.90S
BLUEFIELD      CLOUDY    30  20  66 NW10      29.83S
LEWISBURG      CLOUDY    32  20  61 NW8       29.83F
$$

WVZ047-141800-
Northern Mountains of West Virginia

CITY           SKY/WX    TMP DP  RH WIND       PRES   REMARKS
ELKINS         CLOUDY    27  19  72 NW7       29.86S
$$

WVZ052-141800-
Eastern Panhandle of West Virginia

CITY           SKY/WX    TMP DP  RH WIND       PRES   REMARKS
MARTINSBURG    CLOUDY    34  15  46 W13G22    29.87R
PETERSBURG     PTSUNNY   35  17  48 SW13G20   29.87S
$$




USA.gov is the U.S. government's official web portal to all federal, state and local government web resources and services.